Year,Month,Day,Hour,Minute,Value (Times are PST for temperature in C)
2004,10,11,00,00,14.30
2004,10,11,00,01,14.30
2004,10,11,00,02,14.30
2004,10,11,00,03,14.40
2004,10,11,00,04,14.50
2004,10,11,00,05,14.60
2004,10,11,00,06,14.60
2004,10,11,00,07,14.60
2004,10,11,00,08,14.60
2004,10,11,00,09,14.60
2004,10,11,00,10,14.60
2004,10,11,00,11,14.60
2004,10,11,00,12,14.70
2004,10,11,00,13,14.70
2004,10,11,00,14,14.70
2004,10,11,00,15,14.80
2004,10,11,00,16,14.80
2004,10,11,00,17,14.70
2004,10,11,00,18,14.70
2004,10,11,00,19,14.70
2004,10,11,00,20,14.70
2004,10,11,00,21,14.60
2004,10,11,00,22,14.60
2004,10,11,00,23,14.60
2004,10,11,00,24,14.60
2004,10,11,00,25,14.60
2004,10,11,00,26,14.50
2004,10,11,00,27,14.30
2004,10,11,00,28,14.20
2004,10,11,00,29,14.10
2004,10,11,00,30,14.00
2004,10,11,00,31,13.90
2004,10,11,00,32,13.90
2004,10,11,00,33,13.90
2004,10,11,00,34,14.00
2004,10,11,00,35,13.90
2004,10,11,00,36,14.00
2004,10,11,00,37,14.00
2004,10,11,00,38,14.00
2004,10,11,00,39,14.10
2004,10,11,00,40,14.20
2004,10,11,00,41,14.20
2004,10,11,00,42,14.20
2004,10,11,00,43,14.20
2004,10,11,00,44,14.30
2004,10,11,00,45,14.30
2004,10,11,00,46,14.30
2004,10,11,00,47,14.30
2004,10,11,00,48,14.30
2004,10,11,00,49,14.30
2004,10,11,00,50,14.30
2004,10,11,00,51,14.40
2004,10,11,00,52,14.40
2004,10,11,00,53,14.40
2004,10,11,00,54,14.40
2004,10,11,00,55,14.50
2004,10,11,00,56,14.50
2004,10,11,00,57,14.60
2004,10,11,00,58,14.60
2004,10,11,00,59,14.70
2004,10,11,01,00,14.70
2004,10,11,01,01,14.70
2004,10,11,01,02,14.60
2004,10,11,01,03,14.60
2004,10,11,01,04,14.70
2004,10,11,01,05,14.70
2004,10,11,01,06,14.70
2004,10,11,01,07,14.70
2004,10,11,01,08,14.70
2004,10,11,01,09,14.70
2004,10,11,01,10,14.50
2004,10,11,01,11,14.30
2004,10,11,01,12,14.20
2004,10,11,01,13,14.10
2004,10,11,01,14,13.90
2004,10,11,01,15,13.80
2004,10,11,01,16,13.70
2004,10,11,01,17,13.60
2004,10,11,01,18,13.50
2004,10,11,01,19,13.40
2004,10,11,01,20,13.30
2004,10,11,01,21,13.30
2004,10,11,01,22,13.40
2004,10,11,01,23,13.50
2004,10,11,01,24,13.50
2004,10,11,01,25,13.50
2004,10,11,01,26,13.60
2004,10,11,01,27,13.60
2004,10,11,01,28,13.60
2004,10,11,01,29,13.50
2004,10,11,01,30,13.50
2004,10,11,01,31,13.60
2004,10,11,01,32,13.60
2004,10,11,01,33,13.70
2004,10,11,01,34,13.70
2004,10,11,01,35,13.70
2004,10,11,01,36,13.70
2004,10,11,01,37,13.70
2004,10,11,01,38,13.70
2004,10,11,01,39,13.70
2004,10,11,01,40,13.70
2004,10,11,01,41,13.70
2004,10,11,01,42,13.70
2004,10,11,01,43,13.80
2004,10,11,01,44,13.80
2004,10,11,01,45,13.80
2004,10,11,01,46,13.80
2004,10,11,01,47,13.80
2004,10,11,01,48,13.90
2004,10,11,01,49,13.90
2004,10,11,01,50,14.00
2004,10,11,01,51,14.00
2004,10,11,01,52,14.00
2004,10,11,01,53,14.00
2004,10,11,01,54,13.90
2004,10,11,01,55,13.90
2004,10,11,01,56,13.90
2004,10,11,01,57,13.90
2004,10,11,01,58,14.00
2004,10,11,01,59,14.00
2004,10,11,02,00,14.00
2004,10,11,02,01,14.00
2004,10,11,02,02,14.00
2004,10,11,02,03,13.90
2004,10,11,02,04,13.90
2004,10,11,02,05,13.90
2004,10,11,02,06,13.90
2004,10,11,02,07,13.90
2004,10,11,02,08,14.00
2004,10,11,02,09,14.00
2004,10,11,02,10,14.00
2004,10,11,02,11,14.00
2004,10,11,02,12,14.00
2004,10,11,02,13,14.00
2004,10,11,02,14,14.10
2004,10,11,02,15,14.00
2004,10,11,02,16,13.90
2004,10,11,02,17,13.90
2004,10,11,02,18,13.90
2004,10,11,02,19,13.80
2004,10,11,02,20,13.70
2004,10,11,02,21,13.70
2004,10,11,02,22,13.60
2004,10,11,02,23,13.60
2004,10,11,02,24,13.60
2004,10,11,02,25,13.60
2004,10,11,02,26,13.60
2004,10,11,02,27,13.50
2004,10,11,02,28,13.50
2004,10,11,02,29,13.40
2004,10,11,02,30,13.30
2004,10,11,02,31,13.30
2004,10,11,02,32,13.20
2004,10,11,02,33,13.20
2004,10,11,02,34,13.20
2004,10,11,02,35,13.10
2004,10,11,02,36,13.10
2004,10,11,02,37,13.00
2004,10,11,02,38,13.00
2004,10,11,02,39,12.90
2004,10,11,02,40,13.00
2004,10,11,02,41,13.00
2004,10,11,02,42,13.20
2004,10,11,02,43,13.40
2004,10,11,02,44,13.50
2004,10,11,02,45,13.60
2004,10,11,02,46,13.60
2004,10,11,02,47,13.50
2004,10,11,02,48,13.40
2004,10,11,02,49,13.30
2004,10,11,02,50,13.30
2004,10,11,02,51,13.20
2004,10,11,02,52,13.20
2004,10,11,02,53,13.10
2004,10,11,02,54,13.00
2004,10,11,02,55,13.00
2004,10,11,02,56,12.90
2004,10,11,02,57,12.80
2004,10,11,02,58,12.80
2004,10,11,02,59,12.80
2004,10,11,03,00,12.80
2004,10,11,03,01,12.80
2004,10,11,03,02,12.80
2004,10,11,03,03,12.80
2004,10,11,03,04,12.80
2004,10,11,03,05,12.80
2004,10,11,03,06,12.80
2004,10,11,03,07,12.90
2004,10,11,03,08,13.00
2004,10,11,03,09,13.00
2004,10,11,03,10,13.10
2004,10,11,03,11,13.10
2004,10,11,03,12,13.10
2004,10,11,03,13,13.10
2004,10,11,03,14,13.10
2004,10,11,03,15,13.10
2004,10,11,03,16,13.00
2004,10,11,03,17,13.00
2004,10,11,03,18,13.00
2004,10,11,03,19,13.10
2004,10,11,03,20,13.10
2004,10,11,03,21,13.10
2004,10,11,03,22,13.20
2004,10,11,03,23,13.30
2004,10,11,03,24,13.30
2004,10,11,03,25,13.30
2004,10,11,03,26,13.30
2004,10,11,03,27,13.40
2004,10,11,03,28,13.40
2004,10,11,03,29,13.40
2004,10,11,03,30,13.40
2004,10,11,03,31,13.50
2004,10,11,03,32,13.50
2004,10,11,03,33,13.50
2004,10,11,03,34,13.60
2004,10,11,03,35,13.60
2004,10,11,03,36,13.70
2004,10,11,03,37,13.70
2004,10,11,03,38,13.70
2004,10,11,03,39,13.70
2004,10,11,03,40,13.70
2004,10,11,03,41,13.70
2004,10,11,03,42,13.80
2004,10,11,03,43,13.80
2004,10,11,03,44,13.80
2004,10,11,03,45,13.80
2004,10,11,03,46,13.80
2004,10,11,03,47,13.70
2004,10,11,03,48,13.70
2004,10,11,03,49,13.70
2004,10,11,03,50,13.70
2004,10,11,03,51,13.70
2004,10,11,03,52,13.80
2004,10,11,03,53,13.80
2004,10,11,03,54,13.70
2004,10,11,03,55,13.70
2004,10,11,03,56,13.60
2004,10,11,03,57,13.60
2004,10,11,03,58,13.60
2004,10,11,03,59,13.60
2004,10,11,04,00,13.70
2004,10,11,04,01,13.70
2004,10,11,04,02,13.60
2004,10,11,04,03,13.50
2004,10,11,04,04,13.50
2004,10,11,04,05,13.50
2004,10,11,04,06,13.50
2004,10,11,04,07,13.50
2004,10,11,04,08,13.60
2004,10,11,04,09,13.70
2004,10,11,04,10,13.70
2004,10,11,04,11,13.70
2004,10,11,04,12,13.70
2004,10,11,04,13,13.80
2004,10,11,04,14,13.80
2004,10,11,04,15,13.90
2004,10,11,04,16,13.90
2004,10,11,04,17,13.90
2004,10,11,04,18,14.00
2004,10,11,04,19,14.00
2004,10,11,04,20,14.00
2004,10,11,04,21,14.00
2004,10,11,04,22,14.00
2004,10,11,04,23,13.90
2004,10,11,04,24,13.90
2004,10,11,04,25,13.90
2004,10,11,04,26,13.90
2004,10,11,04,27,13.80
2004,10,11,04,28,13.80
2004,10,11,04,29,13.80
2004,10,11,04,30,13.90
2004,10,11,04,31,13.90
2004,10,11,04,32,13.90
2004,10,11,04,33,13.90
2004,10,11,04,34,13.90
2004,10,11,04,35,13.90
2004,10,11,04,36,13.90
2004,10,11,04,37,13.90
2004,10,11,04,38,13.90
2004,10,11,04,39,13.90
2004,10,11,04,40,13.80
2004,10,11,04,41,13.80
2004,10,11,04,42,13.80
2004,10,11,04,43,13.80
2004,10,11,04,44,13.70
2004,10,11,04,45,13.70
2004,10,11,04,46,13.70
2004,10,11,04,47,13.70
2004,10,11,04,48,13.70
2004,10,11,04,49,13.70
2004,10,11,04,50,13.70
2004,10,11,04,51,13.80
2004,10,11,04,52,13.80
2004,10,11,04,53,13.80
2004,10,11,04,54,13.70
2004,10,11,04,55,13.70
2004,10,11,04,56,13.70
2004,10,11,04,57,13.70
2004,10,11,04,58,13.60
2004,10,11,04,59,13.60
2004,10,11,05,00,13.50
2004,10,11,05,01,13.50
2004,10,11,05,02,13.40
2004,10,11,05,03,13.30
2004,10,11,05,04,13.20
2004,10,11,05,05,13.10
2004,10,11,05,06,13.10
2004,10,11,05,07,13.20
2004,10,11,05,08,13.30
2004,10,11,05,09,13.30
2004,10,11,05,10,13.30
2004,10,11,05,11,13.20
2004,10,11,05,12,13.20
2004,10,11,05,13,13.10
2004,10,11,05,14,13.10
2004,10,11,05,15,13.00
2004,10,11,05,16,13.00
2004,10,11,05,17,13.00
2004,10,11,05,18,12.90
2004,10,11,05,19,12.90
2004,10,11,05,20,12.80
2004,10,11,05,21,12.80
2004,10,11,05,22,12.80
2004,10,11,05,23,12.70
2004,10,11,05,24,12.60
2004,10,11,05,25,12.50
2004,10,11,05,26,12.50
2004,10,11,05,27,12.40
2004,10,11,05,28,12.30
2004,10,11,05,29,12.30
2004,10,11,05,30,12.30
2004,10,11,05,31,12.20
2004,10,11,05,32,12.10
2004,10,11,05,33,12.10
2004,10,11,05,34,12.10
2004,10,11,05,35,12.10
2004,10,11,05,36,12.10
2004,10,11,05,37,12.00
2004,10,11,05,38,12.00
2004,10,11,05,39,12.00
2004,10,11,05,40,12.00
2004,10,11,05,41,12.00
2004,10,11,05,42,11.90
2004,10,11,05,43,11.90
2004,10,11,05,44,11.90
2004,10,11,05,45,11.90
2004,10,11,05,46,11.90
2004,10,11,05,47,11.90
2004,10,11,05,48,11.90
2004,10,11,05,49,11.90
2004,10,11,05,50,11.90
2004,10,11,05,51,11.80
2004,10,11,05,52,11.80
2004,10,11,05,53,11.80
2004,10,11,05,54,11.80
2004,10,11,05,55,11.80
2004,10,11,05,56,11.80
2004,10,11,05,57,11.80
2004,10,11,05,58,11.80
2004,10,11,05,59,11.80
2004,10,11,06,00,11.80
2004,10,11,06,01,11.80
2004,10,11,06,02,11.90
2004,10,11,06,03,11.90
2004,10,11,06,04,11.90
2004,10,11,06,05,12.00
2004,10,11,06,06,12.10
2004,10,11,06,07,12.20
2004,10,11,06,08,12.20
2004,10,11,06,09,12.30
2004,10,11,06,10,12.40
2004,10,11,06,11,12.40
2004,10,11,06,12,12.40
2004,10,11,06,13,12.50
2004,10,11,06,14,12.40
2004,10,11,06,15,12.40
2004,10,11,06,16,12.30
2004,10,11,06,17,12.30
2004,10,11,06,18,12.30
2004,10,11,06,19,12.30
2004,10,11,06,20,12.30
2004,10,11,06,21,12.30
2004,10,11,06,22,12.20
2004,10,11,06,23,12.20
2004,10,11,06,24,12.20
2004,10,11,06,25,12.10
2004,10,11,06,26,12.10
2004,10,11,06,27,12.10
2004,10,11,06,28,12.10
2004,10,11,06,29,12.10
2004,10,11,06,30,12.10
2004,10,11,06,31,12.10
2004,10,11,06,32,12.10
2004,10,11,06,33,12.10
2004,10,11,06,34,12.10
2004,10,11,06,35,12.10
2004,10,11,06,36,12.10
2004,10,11,06,37,12.10
2004,10,11,06,38,12.10
2004,10,11,06,39,12.20
2004,10,11,06,40,12.30
2004,10,11,06,41,12.30
2004,10,11,06,42,12.30
2004,10,11,06,43,12.40
2004,10,11,06,44,12.50
2004,10,11,06,45,12.50
2004,10,11,06,46,12.50
2004,10,11,06,47,12.50
2004,10,11,06,48,12.60
2004,10,11,06,49,12.70
2004,10,11,06,50,12.70
2004,10,11,06,51,12.80
2004,10,11,06,52,12.80
2004,10,11,06,53,12.90
2004,10,11,06,54,12.90
2004,10,11,06,55,12.80
2004,10,11,06,56,12.80
2004,10,11,06,57,12.80
2004,10,11,06,58,12.90
2004,10,11,06,59,12.90
2004,10,11,07,00,12.90
2004,10,11,07,01,12.90
2004,10,11,07,02,12.90
2004,10,11,07,03,12.80
2004,10,11,07,04,12.80
2004,10,11,07,05,12.80
2004,10,11,07,06,12.80
2004,10,11,07,07,12.80
2004,10,11,07,08,12.80
2004,10,11,07,09,12.80
2004,10,11,07,10,12.80
2004,10,11,07,11,12.80
2004,10,11,07,12,12.80
2004,10,11,07,13,12.80
2004,10,11,07,14,12.90
2004,10,11,07,15,13.00
2004,10,11,07,16,13.00
2004,10,11,07,17,13.10
2004,10,11,07,18,13.10
2004,10,11,07,19,13.20
2004,10,11,07,20,13.20
2004,10,11,07,21,13.30
2004,10,11,07,22,13.30
2004,10,11,07,23,13.30
2004,10,11,07,24,13.40
2004,10,11,07,25,13.40
2004,10,11,07,26,13.40
2004,10,11,07,27,13.40
2004,10,11,07,28,13.40
2004,10,11,07,29,13.40
2004,10,11,07,30,13.50
2004,10,11,07,31,13.50
2004,10,11,07,32,13.50
2004,10,11,07,33,13.50
2004,10,11,07,34,13.40
2004,10,11,07,35,13.30
2004,10,11,07,36,13.30
2004,10,11,07,37,13.30
2004,10,11,07,38,13.30
2004,10,11,07,39,13.30
2004,10,11,07,40,13.30
2004,10,11,07,41,13.30
2004,10,11,07,42,13.40
2004,10,11,07,43,13.40
2004,10,11,07,44,13.30
2004,10,11,07,45,13.40
2004,10,11,07,46,13.40
2004,10,11,07,47,13.40
2004,10,11,07,48,13.50
2004,10,11,07,49,13.50
2004,10,11,07,50,13.50
2004,10,11,07,51,13.50
2004,10,11,07,52,13.50
2004,10,11,07,53,13.50
2004,10,11,07,54,13.50
2004,10,11,07,55,13.50
2004,10,11,07,56,13.60
2004,10,11,07,57,13.60
2004,10,11,07,58,13.60
2004,10,11,07,59,13.60
2004,10,11,08,00,13.60
2004,10,11,08,01,13.60
2004,10,11,08,02,13.60
2004,10,11,08,03,13.60
2004,10,11,08,04,13.70
2004,10,11,08,05,13.70
2004,10,11,08,06,13.70
2004,10,11,08,07,13.60
2004,10,11,08,08,13.50
2004,10,11,08,09,13.30
2004,10,11,08,10,13.30
2004,10,11,08,11,13.30
2004,10,11,08,12,13.30
2004,10,11,08,13,13.40
2004,10,11,08,14,13.50
2004,10,11,08,15,13.50
2004,10,11,08,16,13.40
2004,10,11,08,17,13.40
2004,10,11,08,18,13.40
2004,10,11,08,19,13.50
2004,10,11,08,20,13.50
2004,10,11,08,21,13.60
2004,10,11,08,22,13.60
2004,10,11,08,23,13.60
2004,10,11,08,24,13.70
2004,10,11,08,25,13.60
2004,10,11,08,26,13.60
2004,10,11,08,27,13.70
2004,10,11,08,28,13.70
2004,10,11,08,29,13.70
2004,10,11,08,30,13.70
2004,10,11,08,31,13.70
2004,10,11,08,32,13.60
2004,10,11,08,33,13.40
2004,10,11,08,34,13.30
2004,10,11,08,35,13.10
2004,10,11,08,36,13.10
2004,10,11,08,37,13.00
2004,10,11,08,38,12.90
2004,10,11,08,39,12.80
2004,10,11,08,40,12.70
2004,10,11,08,41,12.70
2004,10,11,08,42,12.60
2004,10,11,08,43,12.60
2004,10,11,08,44,12.50
2004,10,11,08,45,12.50
2004,10,11,08,46,12.40
2004,10,11,08,47,12.30
2004,10,11,08,48,12.30
2004,10,11,08,49,12.30
2004,10,11,08,50,12.30
2004,10,11,08,51,12.30
2004,10,11,08,52,12.30
2004,10,11,08,53,12.40
2004,10,11,08,54,12.30
2004,10,11,08,55,12.30
2004,10,11,08,56,12.30
2004,10,11,08,57,12.30
2004,10,11,08,58,12.30
2004,10,11,08,59,12.30
2004,10,11,09,00,12.30
2004,10,11,09,01,12.30
2004,10,11,09,02,12.30
2004,10,11,09,03,12.30
2004,10,11,09,04,12.30
2004,10,11,09,05,12.30
2004,10,11,09,06,12.30
2004,10,11,09,07,12.30
2004,10,11,09,08,12.30
2004,10,11,09,09,12.30
2004,10,11,09,10,12.30
2004,10,11,09,11,12.30
2004,10,11,09,12,12.30
2004,10,11,09,13,12.30
2004,10,11,09,14,12.30
2004,10,11,09,15,12.30
2004,10,11,09,16,12.30
2004,10,11,09,17,12.30
2004,10,11,09,18,12.30
2004,10,11,09,19,12.40
2004,10,11,09,20,12.40
2004,10,11,09,21,12.50
2004,10,11,09,22,12.60
2004,10,11,09,23,12.60
2004,10,11,09,24,12.70
2004,10,11,09,25,12.70
2004,10,11,09,26,12.80
2004,10,11,09,27,13.00
2004,10,11,09,28,13.00
2004,10,11,09,29,13.10
2004,10,11,09,30,13.20
2004,10,11,09,31,13.20
2004,10,11,09,32,13.20
2004,10,11,09,33,13.20
2004,10,11,09,34,13.20
2004,10,11,09,35,13.20
2004,10,11,09,36,13.20
2004,10,11,09,37,13.40
2004,10,11,09,38,13.50
2004,10,11,09,39,13.60
2004,10,11,09,40,13.60
2004,10,11,09,41,13.70
2004,10,11,09,42,13.70
2004,10,11,09,43,13.80
2004,10,11,09,44,13.90
2004,10,11,09,45,13.90
2004,10,11,09,46,13.90
2004,10,11,09,47,13.80
2004,10,11,09,48,13.70
2004,10,11,09,49,13.70
2004,10,11,09,50,13.70
2004,10,11,09,51,13.70
2004,10,11,09,52,13.70
2004,10,11,09,53,13.80
2004,10,11,09,54,13.90
2004,10,11,09,55,14.00
2004,10,11,09,56,14.10
2004,10,11,09,57,14.20
2004,10,11,09,58,14.40
2004,10,11,09,59,14.50
2004,10,11,10,00,14.60
2004,10,11,10,01,14.70
2004,10,11,10,02,14.80
2004,10,11,10,03,14.90
2004,10,11,10,04,15.00
2004,10,11,10,05,15.10
2004,10,11,10,06,15.10
2004,10,11,10,07,15.10
2004,10,11,10,08,15.00
2004,10,11,10,09,15.00
2004,10,11,10,10,15.00
2004,10,11,10,11,15.10
2004,10,11,10,12,15.10
2004,10,11,10,13,15.20
2004,10,11,10,14,15.30
2004,10,11,10,15,15.30
2004,10,11,10,16,15.40
2004,10,11,10,17,15.50
2004,10,11,10,18,15.60
2004,10,11,10,19,15.60
2004,10,11,10,20,15.70
2004,10,11,10,21,15.70
2004,10,11,10,22,15.80
2004,10,11,10,23,15.80
2004,10,11,10,24,15.80
2004,10,11,10,25,15.80
2004,10,11,10,26,15.80
2004,10,11,10,27,15.90
2004,10,11,10,28,16.00
2004,10,11,10,29,15.90
2004,10,11,10,30,15.90
2004,10,11,10,31,15.90
2004,10,11,10,32,15.90
2004,10,11,10,33,15.70
2004,10,11,10,34,15.50
2004,10,11,10,35,15.30
2004,10,11,10,36,15.30
2004,10,11,10,37,15.10
2004,10,11,10,38,15.10
2004,10,11,10,39,15.00
2004,10,11,10,40,14.90
2004,10,11,10,41,14.80
2004,10,11,10,42,14.70
2004,10,11,10,43,14.70
2004,10,11,10,44,14.70
2004,10,11,10,45,14.80
2004,10,11,10,46,14.80
2004,10,11,10,47,14.90
2004,10,11,10,48,15.00
2004,10,11,10,49,15.00
2004,10,11,10,50,15.10
2004,10,11,10,51,15.20
2004,10,11,10,52,15.10
2004,10,11,10,53,15.10
2004,10,11,10,54,15.10
2004,10,11,10,55,15.30
2004,10,11,10,56,15.30
2004,10,11,10,57,15.40
2004,10,11,10,58,15.50
2004,10,11,10,59,15.60
2004,10,11,11,00,15.70
2004,10,11,11,01,15.80
2004,10,11,11,02,15.90
2004,10,11,11,03,16.10
2004,10,11,11,04,16.10
2004,10,11,11,05,16.20
2004,10,11,11,06,16.10
2004,10,11,11,07,16.00
2004,10,11,11,08,16.10
2004,10,11,11,09,16.20
2004,10,11,11,10,16.20
2004,10,11,11,11,16.20
2004,10,11,11,12,16.20
2004,10,11,11,13,16.10
2004,10,11,11,14,16.20
2004,10,11,11,15,16.30
2004,10,11,11,16,16.30
2004,10,11,11,17,16.30
2004,10,11,11,18,16.30
2004,10,11,11,19,16.40
2004,10,11,11,20,16.40
2004,10,11,11,21,16.40
2004,10,11,11,22,16.40
2004,10,11,11,23,16.40
2004,10,11,11,24,16.30
2004,10,11,11,25,16.30
2004,10,11,11,26,16.30
2004,10,11,11,27,16.20
2004,10,11,11,28,16.20
2004,10,11,11,29,16.30
2004,10,11,11,30,16.20
2004,10,11,11,31,16.10
2004,10,11,11,32,16.10
2004,10,11,11,33,16.10
2004,10,11,11,34,16.20
2004,10,11,11,35,16.30
2004,10,11,11,36,16.30
2004,10,11,11,37,16.10
2004,10,11,11,38,15.90
2004,10,11,11,39,15.60
2004,10,11,11,40,15.50
2004,10,11,11,41,15.50
2004,10,11,11,42,15.40
2004,10,11,11,43,15.40
2004,10,11,11,44,15.40
2004,10,11,11,45,15.50
2004,10,11,11,46,15.40
2004,10,11,11,47,15.30
2004,10,11,11,48,15.10
2004,10,11,11,49,15.00
2004,10,11,11,50,15.10
2004,10,11,11,51,15.20
2004,10,11,11,52,15.20
2004,10,11,11,53,15.20
2004,10,11,11,54,15.30
2004,10,11,11,55,15.40
2004,10,11,11,56,15.60
2004,10,11,11,57,15.80
2004,10,11,11,58,15.90
2004,10,11,11,59,16.00
2004,10,11,12,00,16.00
2004,10,11,12,01,16.10
2004,10,11,12,02,16.30
2004,10,11,12,03,16.20
2004,10,11,12,04,16.10
2004,10,11,12,05,16.10
2004,10,11,12,06,16.10
2004,10,11,12,07,16.40
2004,10,11,12,08,16.50
2004,10,11,12,09,16.70
2004,10,11,12,10,16.80
2004,10,11,12,11,16.70
2004,10,11,12,12,16.60
2004,10,11,12,13,16.50
2004,10,11,12,14,16.30
2004,10,11,12,15,16.30
2004,10,11,12,16,16.30
2004,10,11,12,17,16.40
2004,10,11,12,18,16.40
2004,10,11,12,19,16.40
2004,10,11,12,20,16.60
2004,10,11,12,21,16.80
2004,10,11,12,22,16.90
2004,10,11,12,23,17.00
2004,10,11,12,24,17.10
2004,10,11,12,25,17.20
2004,10,11,12,26,17.30
2004,10,11,12,27,17.30
2004,10,11,12,28,17.40
2004,10,11,12,29,17.20
2004,10,11,12,30,17.10
2004,10,11,12,31,17.00
2004,10,11,12,32,17.10
2004,10,11,12,33,17.10
2004,10,11,12,34,17.00
2004,10,11,12,35,17.00
2004,10,11,12,36,17.10
2004,10,11,12,37,17.10
2004,10,11,12,38,17.00
2004,10,11,12,39,17.00
2004,10,11,12,40,17.00
2004,10,11,12,41,17.10
2004,10,11,12,42,17.00
2004,10,11,12,43,17.00
2004,10,11,12,44,17.20
2004,10,11,12,45,17.30
2004,10,11,12,46,17.40
2004,10,11,12,47,17.60
2004,10,11,12,48,17.50
2004,10,11,12,49,17.40
2004,10,11,12,50,17.30
2004,10,11,12,51,17.30
2004,10,11,12,52,17.30
2004,10,11,12,53,17.20
2004,10,11,12,54,17.00
2004,10,11,12,55,16.80
2004,10,11,12,56,16.60
2004,10,11,12,57,16.50
2004,10,11,12,58,16.30
2004,10,11,12,59,16.20
2004,10,11,13,00,16.00
2004,10,11,13,01,15.80
2004,10,11,13,02,15.80
2004,10,11,13,03,15.70
2004,10,11,13,04,15.50
2004,10,11,13,05,15.40
2004,10,11,13,06,15.30
2004,10,11,13,07,15.30
2004,10,11,13,08,15.30
2004,10,11,13,09,15.30
2004,10,11,13,10,15.30
2004,10,11,13,11,15.30
2004,10,11,13,12,15.30
2004,10,11,13,13,15.30
2004,10,11,13,14,15.30
2004,10,11,13,15,15.30
2004,10,11,13,16,15.30
2004,10,11,13,17,15.40
2004,10,11,13,18,15.40
2004,10,11,13,19,15.50
2004,10,11,13,20,15.50
2004,10,11,13,21,15.50
2004,10,11,13,22,15.60
2004,10,11,13,23,15.70
2004,10,11,13,24,15.80
2004,10,11,13,25,15.70
2004,10,11,13,26,15.60
2004,10,11,13,27,15.50
2004,10,11,13,28,15.50
2004,10,11,13,29,15.40
2004,10,11,13,30,15.30
2004,10,11,13,31,15.30
2004,10,11,13,32,15.30
2004,10,11,13,33,15.20
2004,10,11,13,34,15.20
2004,10,11,13,35,15.30
2004,10,11,13,36,15.30
2004,10,11,13,37,15.40
2004,10,11,13,38,15.30
2004,10,11,13,39,15.10
2004,10,11,13,40,15.10
2004,10,11,13,41,15.00
2004,10,11,13,42,14.90
2004,10,11,13,43,14.80
2004,10,11,13,44,14.80
2004,10,11,13,45,15.00
2004,10,11,13,46,14.90
2004,10,11,13,47,14.80
2004,10,11,13,48,14.80
2004,10,11,13,49,14.70
2004,10,11,13,50,14.70
2004,10,11,13,51,14.70
2004,10,11,13,52,14.60
2004,10,11,13,53,14.60
2004,10,11,13,54,14.60
2004,10,11,13,55,14.60
2004,10,11,13,56,14.50
2004,10,11,13,57,14.50
2004,10,11,13,58,14.40
2004,10,11,13,59,14.40
2004,10,11,14,00,14.30
2004,10,11,14,01,14.30
2004,10,11,14,02,14.40
2004,10,11,14,03,14.40
2004,10,11,14,04,14.40
2004,10,11,14,05,14.40
2004,10,11,14,06,14.30
2004,10,11,14,07,14.30
2004,10,11,14,08,14.40
2004,10,11,14,09,14.50
2004,10,11,14,10,14.50
2004,10,11,14,11,14.50
2004,10,11,14,12,14.50
2004,10,11,14,13,14.40
2004,10,11,14,14,14.30
2004,10,11,14,15,14.30
2004,10,11,14,16,14.20
2004,10,11,14,17,14.20
2004,10,11,14,18,14.20
2004,10,11,14,19,14.20
2004,10,11,14,20,14.10
2004,10,11,14,21,14.10
2004,10,11,14,22,14.00
2004,10,11,14,23,14.00
2004,10,11,14,24,14.00
2004,10,11,14,25,13.80
2004,10,11,14,26,13.70
2004,10,11,14,27,13.70
2004,10,11,14,28,13.70
2004,10,11,14,29,13.70
2004,10,11,14,30,13.60
2004,10,11,14,31,13.60
2004,10,11,14,32,13.70
2004,10,11,14,33,13.60
2004,10,11,14,34,13.60
2004,10,11,14,35,13.60
2004,10,11,14,36,13.50
2004,10,11,14,37,13.50
2004,10,11,14,38,13.50
2004,10,11,14,39,13.50
2004,10,11,14,40,13.60
2004,10,11,14,41,13.60
2004,10,11,14,42,13.70
2004,10,11,14,43,13.70
2004,10,11,14,44,13.70
2004,10,11,14,45,13.80
2004,10,11,14,46,13.80
2004,10,11,14,47,13.80
2004,10,11,14,48,13.90
2004,10,11,14,49,14.00
2004,10,11,14,50,14.20
2004,10,11,14,51,14.30
2004,10,11,14,52,14.30
2004,10,11,14,53,14.30
2004,10,11,14,54,14.30
2004,10,11,14,55,14.40
2004,10,11,14,56,14.40
2004,10,11,14,57,14.30
2004,10,11,14,58,14.20
2004,10,11,14,59,14.20
2004,10,11,15,00,14.20
2004,10,11,15,01,14.10
2004,10,11,15,02,14.20
2004,10,11,15,03,14.30
2004,10,11,15,04,14.30
2004,10,11,15,05,14.50
2004,10,11,15,06,14.50
2004,10,11,15,07,14.50
2004,10,11,15,08,14.50
2004,10,11,15,09,14.50
2004,10,11,15,10,14.40
2004,10,11,15,11,14.50
2004,10,11,15,12,14.50
2004,10,11,15,13,14.50
2004,10,11,15,14,14.50
2004,10,11,15,15,14.40
2004,10,11,15,16,14.40
2004,10,11,15,17,14.50
2004,10,11,15,18,14.60
2004,10,11,15,19,14.50
2004,10,11,15,20,14.50
2004,10,11,15,21,14.40
2004,10,11,15,22,14.40
2004,10,11,15,23,14.40
2004,10,11,15,24,14.40
2004,10,11,15,25,14.50
2004,10,11,15,26,14.60
2004,10,11,15,27,14.70
2004,10,11,15,28,14.80
2004,10,11,15,29,15.00
2004,10,11,15,30,15.20
2004,10,11,15,31,15.40
2004,10,11,15,32,15.40
2004,10,11,15,33,15.50
2004,10,11,15,34,15.50
2004,10,11,15,35,15.50
2004,10,11,15,36,15.60
2004,10,11,15,37,15.70
2004,10,11,15,38,15.80
2004,10,11,15,39,15.80
2004,10,11,15,40,15.90
2004,10,11,15,41,15.90
2004,10,11,15,42,16.00
2004,10,11,15,43,16.00
2004,10,11,15,44,16.00
2004,10,11,15,45,16.10
2004,10,11,15,46,16.20
2004,10,11,15,47,16.30
2004,10,11,15,48,16.40
2004,10,11,15,49,16.50
2004,10,11,15,50,16.50
2004,10,11,15,51,16.60
2004,10,11,15,52,16.70
2004,10,11,15,53,16.70
2004,10,11,15,54,16.80
2004,10,11,15,55,16.80
2004,10,11,15,56,16.80
2004,10,11,15,57,16.70
2004,10,11,15,58,16.70
2004,10,11,15,59,16.70
2004,10,11,16,00,16.60
2004,10,11,16,01,16.60
2004,10,11,16,02,16.70
2004,10,11,16,03,16.70
2004,10,11,16,04,16.70
2004,10,11,16,05,16.70
2004,10,11,16,06,16.80
2004,10,11,16,07,16.80
2004,10,11,16,08,16.70
2004,10,11,16,09,16.70
2004,10,11,16,10,16.70
2004,10,11,16,11,16.60
2004,10,11,16,12,16.60
2004,10,11,16,13,16.50
2004,10,11,16,14,16.40
2004,10,11,16,15,16.40
2004,10,11,16,16,16.40
2004,10,11,16,17,16.50
2004,10,11,16,18,16.50
2004,10,11,16,19,16.50
2004,10,11,16,20,16.50
2004,10,11,16,21,16.60
2004,10,11,16,22,16.60
2004,10,11,16,23,16.60
2004,10,11,16,24,16.50
2004,10,11,16,25,16.50
2004,10,11,16,26,16.40
2004,10,11,16,27,16.40
2004,10,11,16,28,16.40
2004,10,11,16,29,16.40
2004,10,11,16,30,16.40
2004,10,11,16,31,16.40
2004,10,11,16,32,16.30
2004,10,11,16,33,16.30
2004,10,11,16,34,16.20
2004,10,11,16,35,16.20
2004,10,11,16,36,16.20
2004,10,11,16,37,16.20
2004,10,11,16,38,16.10
2004,10,11,16,39,16.10
2004,10,11,16,40,16.10
2004,10,11,16,41,15.90
2004,10,11,16,42,15.90
2004,10,11,16,43,15.90
2004,10,11,16,44,15.80
2004,10,11,16,45,15.90
2004,10,11,16,46,15.90
2004,10,11,16,47,16.10
2004,10,11,16,48,16.20
2004,10,11,16,49,16.30
2004,10,11,16,50,16.30
2004,10,11,16,51,16.30
2004,10,11,16,52,16.30
2004,10,11,16,53,16.30
2004,10,11,16,54,16.30
2004,10,11,16,55,16.30
2004,10,11,16,56,16.20
2004,10,11,16,57,16.20
2004,10,11,16,58,16.10
2004,10,11,16,59,15.90
2004,10,11,17,00,15.80
2004,10,11,17,01,15.80
2004,10,11,17,02,15.70
2004,10,11,17,03,15.60
2004,10,11,17,04,15.40
2004,10,11,17,05,15.30
2004,10,11,17,06,15.30
2004,10,11,17,07,15.20
2004,10,11,17,08,15.10
2004,10,11,17,09,15.20
2004,10,11,17,10,15.20
2004,10,11,17,11,15.10
2004,10,11,17,12,15.30
2004,10,11,17,13,15.20
2004,10,11,17,14,15.10
2004,10,11,17,15,15.10
2004,10,11,17,16,15.00
2004,10,11,17,17,14.90
2004,10,11,17,18,14.90
2004,10,11,17,19,14.80